• In Italy
  • List of Countries
  • For 7 days
  • Water Temperature
  • Satellite Maps
  • Weather Map
  • Weather Widgets
  • user-avatar
    Login

    Hourly Weather Dżakarta

    Today, 20 November, Monday

    Time Temperature Precipitation Wind Pressure Humidity
    00:00 +29°C° 0.7 mm 3 mps 755 mmHg 74%
    01:00 +28°C° 0 mm 2 mps 755 mmHg 74%
    02:00 +28°C° 0.4 mm 3 mps 755 mmHg 73%
    03:00 +28°C° 0.4 mm 3 mps 755 mmHg 73%
    04:00 +28°C° 0.4 mm 3 mps 755 mmHg 73%
    05:00 +28°C° 0 mm 3 mps 755 mmHg 71%
    06:00 +29°C° 0 mm 3 mps 756 mmHg 70%
    07:00 +29°C° 0 mm 2 mps 756 mmHg 69%
    08:00 +31°C° 0 mm 2 mps 756 mmHg 61%
    09:00 +34°C° 0 mm 2 mps 756 mmHg 53%
    10:00 +36°C° 0 mm 2 mps 756 mmHg 45%
    11:00 +36°C° 0 mm 3 mps 756 mmHg 43%
    12:00 +37°C° 0 mm 3 mps 755 mmHg 41%
    13:00 +37°C° 0 mm 4 mps 755 mmHg 39%
    14:00 +36°C° 0 mm 4 mps 755 mmHg 43%
    15:00 +36°C° 0 mm 5 mps 754 mmHg 46%
    16:00 +35°C° 0 mm 5 mps 754 mmHg 50%
    17:00 +33°C° 0 mm 5 mps 754 mmHg 56%
    18:00 +32°C° 0 mm 6 mps 755 mmHg 62%
    19:00 +30°C° 0 mm 6 mps 755 mmHg 67%
    20:00 +30°C° 0 mm 5 mps 755 mmHg 69%
    21:00 +29°C° 0 mm 5 mps 756 mmHg 70%
    22:00 +29°C° 0 mm 4 mps 756 mmHg 71%
    23:00 +29°C° 0 mm 4 mps 756 mmHg 73%

    Tomorrow, 21 November, Tuesday

    Time Temperature Precipitation Wind Pressure Humidity
    00:00 +29°C° 0 mm 4 mps 755 mmHg 74%
    01:00 +29°C° 0 mm 3 mps 755 mmHg 75%
    02:00 +28°C° 0 mm 3 mps 755 mmHg 77%
    03:00 +28°C° 0 mm 4 mps 755 mmHg 78%
    04:00 +28°C° 0 mm 4 mps 754 mmHg 79%
    05:00 +29°C° 0 mm 4 mps 755 mmHg 78%
    06:00 +29°C° 0 mm 4 mps 755 mmHg 76%
    07:00 +29°C° 0 mm 3 mps 755 mmHg 75%
    08:00 +31°C° 0 mm 3 mps 755 mmHg 68%
    09:00 +34°C° 0 mm 3 mps 756 mmHg 61%
    10:00 +35°C° 0 mm 3 mps 756 mmHg 55%
    11:00 +35°C° 0.1 mm 3 mps 755 mmHg 53%
    12:00 +36°C° 0.1 mm 4 mps 755 mmHg 52%
    13:00 +36°C° 0.1 mm 4 mps 754 mmHg 51%
    14:00 +35°C° 0.3 mm 4 mps 754 mmHg 55%
    15:00 +34°C° 0.3 mm 5 mps 754 mmHg 60%
    16:00 +33°C° 0.3 mm 5 mps 753 mmHg 64%
    17:00 +32°C° 0.5 mm 5 mps 753 mmHg 68%
    18:00 +30°C° 0.5 mm 5 mps 754 mmHg 72%
    19:00 +29°C° 0.5 mm 5 mps 754 mmHg 76%
    20:00 +29°C° 0.1 mm 4 mps 755 mmHg 77%
    21:00 +29°C° 0.1 mm 4 mps 755 mmHg 78%
    22:00 +29°C° 0.1 mm 4 mps 755 mmHg 79%
    23:00 +29°C° 0.1 mm 4 mps 755 mmHg 79%

    Day after tomorrow, 22 November, Wednesday

    Time Temperature Precipitation Wind Pressure Humidity
    00:00 +29°C° 0.1 mm 4 mps 755 mmHg 80%
    01:00 +28°C° 0.1 mm 4 mps 754 mmHg 80%
    02:00 +28°C° 0.2 mm 3 mps 754 mmHg 81%
    03:00 +28°C° 0.2 mm 3 mps 754 mmHg 81%
    04:00 +28°C° 0.2 mm 3 mps 753 mmHg 81%
    05:00 +28°C° 0.1 mm 3 mps 754 mmHg 80%
    06:00 +29°C° 0.1 mm 3 mps 754 mmHg 78%
    07:00 +29°C° 0.1 mm 3 mps 755 mmHg 76%
    08:00 +31°C° 0 mm 3 mps 755 mmHg 70%
    09:00 +33°C° 0 mm 3 mps 755 mmHg 64%
    10:00 +34°C° 0 mm 2 mps 755 mmHg 57%
    11:00 +35°C° 0 mm 3 mps 754 mmHg 55%
    12:00 +35°C° 0 mm 3 mps 754 mmHg 53%
    13:00 +36°C° 0 mm 4 mps 753 mmHg 50%
    14:00 +35°C° 0.1 mm 4 mps 753 mmHg 54%
    15:00 +34°C° 0.1 mm 4 mps 752 mmHg 57%
    16:00 +34°C° 0.1 mm 5 mps 752 mmHg 61%
    17:00 +33°C° 0 mm 5 mps 752 mmHg 65%
    18:00 +32°C° 0 mm 5 mps 753 mmHg 69%
    19:00 +30°C° 0 mm 5 mps 753 mmHg 74%
    20:00 +29°C° 0 mm 4 mps 754 mmHg 75%
    21:00 +29°C° 0 mm 4 mps 754 mmHg 77%
    22:00 +29°C° 0 mm 4 mps 755 mmHg 78%
    23:00 +29°C° 0 mm 4 mps 754 mmHg 79%

    23 November, Thursday

    Time Temperature Precipitation Wind Pressure Humidity
    00:00 +28°C° 0 mm 4 mps 754 mmHg 80%
    01:00 +28°C° 0 mm 4 mps 753 mmHg 81%
    02:00 +28°C° 0.1 mm 4 mps 753 mmHg 81%
    03:00 +28°C° 0.1 mm 4 mps 753 mmHg 82%
    04:00 +28°C° 0.1 mm 4 mps 753 mmHg 82%
    05:00 +28°C° 0 mm 4 mps 753 mmHg 80%
    06:00 +29°C° 0 mm 4 mps 754 mmHg 77%
    07:00 +29°C° 0 mm 4 mps 754 mmHg 75%
    08:00 +32°C° 0 mm 4 mps 754 mmHg 67%
    09:00 +34°C° 0 mm 4 mps 754 mmHg 59%
    10:00 +35°C° 0 mm 4 mps 754 mmHg 51%
    11:00 +36°C° 0 mm 4 mps 754 mmHg 48%
    12:00 +37°C° 0 mm 5 mps 753 mmHg 46%
    13:00 +39°C° 0 mm 5 mps 752 mmHg 43%
    14:00 +37°C° 0 mm 5 mps 752 mmHg 45%
    15:00 +38°C° 0 mm 6 mps 751 mmHg 47%
    16:00 +36°C° 0 mm 6 mps 751 mmHg 49%
    17:00 +35°C° 0 mm 6 mps 751 mmHg 56%
    18:00 +33°C° 0 mm 6 mps 752 mmHg 63%
    19:00 +30°C° 0 mm 6 mps 753 mmHg 70%
    20:00 +30°C° 0 mm 6 mps 753 mmHg 71%
    21:00 +29°C° 0 mm 5 mps 754 mmHg 73%
    22:00 +29°C° 0 mm 5 mps 754 mmHg 74%
    23:00 +29°C° 0 mm 5 mps 754 mmHg 75%

    24 November, Friday

    Time Temperature Precipitation Wind Pressure Humidity
    00:00 +29°C° 0 mm 5 mps 754 mmHg 76%
    01:00 +29°C° 0 mm 5 mps 753 mmHg 77%
    02:00 +28°C° 0 mm 5 mps 753 mmHg 77%
    03:00 +28°C° 0 mm 5 mps 753 mmHg 77%
    04:00 +28°C° 0 mm 4 mps 753 mmHg 78%
    05:00 +29°C° 0 mm 5 mps 753 mmHg 76%
    06:00 +29°C° 0 mm 5 mps 753 mmHg 74%
    07:00 +30°C° 0 mm 5 mps 754 mmHg 73%
    08:00 +32°C° 0 mm 5 mps 754 mmHg 67%
    09:00 +33°C° 0 mm 5 mps 754 mmHg 62%
    10:00 +34°C° 0 mm 5 mps 754 mmHg 57%
    11:00 +35°C° 0 mm 5 mps 754 mmHg 54%
    12:00 +36°C° 0 mm 5 mps 753 mmHg 51%
    13:00 +36°C° 0 mm 6 mps 752 mmHg 49%
    14:00 +36°C° 0 mm 6 mps 752 mmHg 50%
    15:00 +35°C° 0 mm 6 mps 751 mmHg 52%
    16:00 +35°C° 0 mm 6 mps 751 mmHg 53%
    17:00 +34°C° 0 mm 6 mps 752 mmHg 58%
    18:00 +32°C° 0 mm 6 mps 752 mmHg 64%
    19:00 +30°C° 0 mm 5 mps 753 mmHg 69%
    20:00 +30°C° 0 mm 6 mps 753 mmHg 71%
    21:00 +30°C° 0 mm 6 mps 754 mmHg 73%
    22:00 +29°C° 0 mm 6 mps 754 mmHg 75%
    23:00 +29°C° 0.1 mm 6 mps 754 mmHg 76%

    25 November, Saturday

    Time Temperature Precipitation Wind Pressure Humidity
    00:00 +29°C° 0.1 mm 6 mps 753 mmHg 77%
    01:00 +28°C° 0.1 mm 6 mps 753 mmHg 78%
    02:00 +28°C° 0.1 mm 6 mps 753 mmHg 79%
    03:00 +28°C° 0.1 mm 6 mps 752 mmHg 79%
    04:00 +28°C° 0.1 mm 6 mps 752 mmHg 79%
    05:00 +29°C° 0.5 mm 5 mps 753 mmHg 78%
    06:00 +29°C° 0.5 mm 5 mps 753 mmHg 77%
    07:00 +29°C° 0.5 mm 5 mps 754 mmHg 76%
    08:00 +30°C° 0.3 mm 5 mps 754 mmHg 72%
    09:00 +32°C° 0.3 mm 5 mps 754 mmHg 67%
    10:00 +33°C° 0.3 mm 5 mps 754 mmHg 63%
    11:00 +34°C° 0.1 mm 5 mps 754 mmHg 61%
    12:00 +34°C° 0.1 mm 5 mps 753 mmHg 60%
    13:00 +34°C° 0.1 mm 5 mps 752 mmHg 59%
    14:00 +34°C° 0.5 mm 5 mps 752 mmHg 62%
    15:00 +33°C° 0.5 mm 6 mps 752 mmHg 64%
    16:00 +33°C° 0.5 mm 6 mps 752 mmHg 67%
    17:00 +32°C° 0.4 mm 6 mps 753 mmHg 70%
    18:00 +30°C° 0.4 mm 5 mps 753 mmHg 73%
    19:00 +29°C° 0.4 mm 5 mps 754 mmHg 77%
    20:00 +29°C° 0.2 mm 5 mps 754 mmHg 77%
    21:00 +29°C° 0.2 mm 5 mps 755 mmHg 78%
    22:00 +29°C° 0.2 mm 5 mps 755 mmHg 79%
    23:00 +29°C° 0.5 mm 5 mps 754 mmHg 80%
    Show more